Погода в Скалате

Украина / Тернопольская область     49°25′44″N   25°58′58″E
темп.,
°C
ветер,
м/с
пор.,
м/с
влажн.,
%
обл.,
%
осадки,
мм/ч
давл.,
гПа
погр.,
м
19 января, ср
ср1923:00−4сз715825 0.0 1031600
02:00−5сз5129219 0.0 1031359
05:00−4зсз51092100 0.0 1030314
08:00−3з5992100 0.0 1030708
11:00−3зсз61092100 0.0 1029474
14:00−1зсз511875 0.0 1026589
17:00−3зсз489192 0.0 1024186
20:00−5юз2495100 0.0 102363
20 января, чт
чт2023:00−4юз3891100 0.0 1020124
02:00−5юз3788100 0.0 101892
05:00−5юз388794 0.0 1015113
08:00−6юз378669 0.0 1013109
11:00−1зюз8177374 0.0 1012704
14:000зюз81488100 0.0 1010909
17:00−2зюз61287100 0.0 1009472
20:00−3з61495100 0.4 1009629
21 января, пт
пт2123:00−4з71387100 0.7 1010884
02:00−5з8149098 0.8 1011885
05:00−5з91686100 0.1 1012846
08:00−5з101782100 0.1 1012925
11:00−5з111786100 0.0 10131013
14:00−4з111685100 0.1 1012947
17:00−4з9168596 0.1 1013923
20:00−4з91688100 0.1 1013826
22 января, сб
сб2223:00−4з81591100 0.1 1013868
02:00−5з81689100 0.1 1013745
05:00−5з81590100 0.1 1013840
08:00−5з71490100 0.1 1013813
11:00−4з81390100 0.3 1014934
14:00−4зсз71293100 0.8 10131027
17:00−5сз5990100 0.6 1016332
20:00−7сз4109493 0.7 1018322
23 января, вс
вс2323:00−7сз5109291 0.1 1021490
02:00−7сз499484 0.2 1022463
05:00−7зсз4994100 0.1 1022381
08:00−7зсз3696100 0.5 1023361
11:00−5ссв348898 0.2 1024570
14:00−5ссв4583100 0.4 1025685
17:00−7ссв479399 0.1 1027272
20:00−8с4895100 0.2 1030324